| time (UTC) | temp F | wind direction | speed knots | gust knots | rain 1hr in | rain 24hr in | rain mn in | humidity % | barometer mb |
| 20260505030016 | 62 | 90 | 0.9 | 2.6 | 0.00 | 0.00 | 0.00 | 41 | 1004.8 |
| 20260505023056 | 64 | 0.0 | 3.5 | 0.00 | 0.00 | 0.00 | 41 | 1004.7 | |
| 20260505020016 | 65 | 180 | 1.7 | 7.8 | 0.00 | 0.00 | 0.00 | 39 | 1004.3 |
| 20260505013016 | 65 | 113 | 2.6 | 9.6 | 0.00 | 0.00 | 0.00 | 36 | 1004.6 |
| 20260505010016 | 65 | 158 | 6.1 | 13.0 | 0.00 | 0.00 | 0.00 | 40 | 1004.8 |
| 20260505003016 | 67 | 180 | 2.6 | 12.2 | 0.00 | 0.00 | 0.00 | 39 | 1005.8 |
| 20260505000016 | 69 | 315 | 0.9 | 8.7 | 0.00 | 0.00 | 0.00 | 32 | 1005.4 |
| 20260504233016 | 71 | 23 | 2.6 | 10.4 | 0.00 | 0.00 | 0.00 | 32 | 1005.8 |
| 20260504230056 | 71 | 23 | 6.1 | 16.5 | 0.00 | 0.00 | 0.00 | 32 | 1005.7 |
| 20260504223016 | 72 | 0 | 5.2 | 15.6 | 0.00 | 0.00 | 0.00 | 30 | 1006.2 |
| 20260504220016 | 73 | 225 | 1.7 | 10.4 | 0.00 | 0.00 | 0.00 | 29 | 1006.4 |
| 20260504213016 | 72 | 203 | 3.5 | 13.9 | 0.00 | 0.00 | 0.00 | 31 | 1006.7 |
| 20260504210016 | 72 | 180 | 3.5 | 14.8 | 0.00 | 0.00 | 0.00 | 28 | 1006.9 |
| 20260504203016 | 72 | 203 | 3.5 | 9.6 | 0.00 | 0.00 | 0.00 | 28 | 1006.7 |
| 20260504200015 | 72 | 180 | 3.5 | 11.3 | 0.00 | 0.00 | 0.00 | 27 | 1006.6 |
| 20260504193015 | 71 | 203 | 3.5 | 10.4 | 0.00 | 0.00 | 0.00 | 33 | 1007.4 |
| 20260504190016 | 70 | 180 | 3.5 | 12.2 | 0.00 | 0.00 | 0.00 | 32 | 1007.8 |
| 20260504183018 | 70 | 180 | 2.6 | 8.7 | 0.00 | 0.00 | 0.00 | 33 | 1008.2 |
| 20260504180016 | 68 | 180 | 4.3 | 11.3 | 0.00 | 0.00 | 0.00 | 32 | 1008.3 |
| 20260504173017 | 67 | 180 | 4.3 | 10.4 | 0.00 | 0.00 | 0.00 | 35 | 1008.5 |
| 20260504050017 | 62 | 23 | 1.7 | 3.5 | 0.00 | 0.00 | 0.00 | 24 | 1008.9 |
| 20260504043017 | 62 | 90 | 1.7 | 3.5 | 0.00 | 0.00 | 0.00 | 24 | 1008.5 |
| 20260504040057 | 64 | 90 | 1.7 | 5.2 | 0.00 | 0.00 | 0.00 | 23 | 1008.4 |
| 20260504033016 | 65 | 90 | 1.7 | 5.2 | 0.00 | 0.00 | 0.00 | 23 | 1008.0 |